Regional Weather Roundup
Issued by NWS

Home | Current Version | Previous Version | Graphics & Text | Print | Product List | Glossary On
Versions: 1 2 3 4 5 6 7 8 9 10 11 12 13 14 15 16 17 18 19 20 21 22 23 24 25 26 27 28 29 30 31 32 33 34 35 36 37 38 39 40 41 42 43 44 45 46 47 48 49 50
000
ASUS45 KTFX 140210
RWRMT
MONTANA REGIONAL WEATHER ROUNDUP
NATIONAL WEATHER SERVICE GREAT FALLS MT
700 PM MST SAT FEB 13 2016

NOTE: "FAIR" INDICATES FEW OR NO CLOUDS BELOW 12000 FEET WITH NO
SIGNIFICANT WEATHER AND/OR OBSTRUCTIONS TO VISIBILITY.

MTZ001>007-043-140300-
WEST OF THE DIVIDE

CITY           SKY/WX    TMP DP  RH WIND       PRES   REMARKS
KALISPELL      CLOUDY    38  28  67 SW8       30.09F
MISSOULA       CLOUDY    41  26  55 CALM      30.16S
BUTTE          CLOUDY    33  17  51 W14G20    30.12S WCI  23
MULLAN PASS    LGT SNOW  25  24  96 VRB5      30.06F VSB 3/4
ANACONDA         N/A     34  18  51 S5        30.12S
DEER LODGE       N/A     34  25  69 W3        30.13S
HAMILTON         N/A     39  21  48 SE9       30.15F
PLAINS           N/A     43  29  58 SE1       30.13
$$

MTZ008-052>055-140300-
SOUTHWEST MONTANA

CITY           SKY/WX    TMP DP  RH WIND       PRES   REMARKS
BOZEMAN        CLOUDY    28  20  71 SE8       30.10S WCI  20
DILLON         CLOUDY    36  17  46 W18       30.14R WCI  26
ENNIS          CLEAR     34  18  51 SE10      30.20R WCI  26
TWIN BRIDGES     N/A     35  19  52 E6        30.11S WCI  30
$$

MTZ009-010-012-014-046-048-049-054-140300-
EAST SLOPES AND CENTRAL MONTANA

CITY           SKY/WX    TMP DP  RH WIND       PRES   REMARKS
CUT BANK       CLOUDY    36  24  62 W26G32    29.94F WCI  24
GREAT FALLS    CLOUDY    36  22  56 SW14      30.00R WCI  27
MALMSTROM AFB  PTCLDY    39  24  54 SW20      30.01R WCI  29
HELENA         CLOUDY    42  21  43 VRB3      30.08F
CHOTEAU          N/A     39  18  41 S14       29.99S WCI  31
CONRAD           N/A     38  26  62 W8        29.99F
$$

MTZ011-013-016-021-045-047-050-051-140300-
NORTH CENTRAL MONTANA

CITY           SKY/WX    TMP DP  RH WIND       PRES   REMARKS
HAVRE          CLOUDY    34  28  79 SW8       29.94R WCI  27
LEWISTOWN      CLOUDY    38  26  62 W13       29.97R WCI  30
N BAR RANCH      N/A     34  25  69 NW14      29.97R WCI  24
CHINOOK          N/A     34  27  75 W5        29.93S
$$

MTZ017>020-022>027-061-062-140300-
NORTHEAST MONTANA

CITY           SKY/WX    TMP DP  RH WIND       PRES   REMARKS
GLASGOW        PTCLDY    36  30  79 NW23      29.86R WCI  24
JORDAN           N/A     36  31  82 W9        29.88R WCI  29
SIDNEY         CLOUDY    37  30  75 W16G23    29.78S WCI  28
WOLF POINT     LGT RAIN  37  32  82 NW12      29.84R WCI  29
PLENTYWOOD       N/A     27  25  93 W12       29.77R WCI  16
POPLAR           N/A     36  30  80 NW12G18   29.83R WCI  27
SCOBEY           N/A     29  17  60 W18       29.80  WCI  17
$$

MTZ028>42-056>058-140300-
SOUTHCENTRAL AND SOUTHEAST MONTANA

CITY           SKY/WX    TMP DP  RH WIND       PRES   REMARKS
BAKER          MOCLDY    37  34  89 W14       29.82S WCI  28
BILLINGS       PTCLDY    41  17  38 W13       30.01R
LIVINGSTON     CLEAR     36  20  52 NW15      30.06R WCI  27
MILES CITY     MOCLDY    41  33  73 NW22G29   29.88R
EKALAKA          N/A     35  32  89 W13       29.84  WCI  26
FORSYTH          N/A     39  34  81 W9G16     29.93R
LAUREL           N/A     43  17  35 W20       30.00
ROUNDUP          N/A     37  23  57 CALM      29.90S
$$

REGIONAL REPORTS...DAKOTAS

CITY           SKY/WX    TMP DP  RH WIND       PRES   REMARKS
WILLISTON      CLOUDY    23  20  88 CALM      29.78S
MINOT          LGT SNOW  17  10  74 SE12      29.85F WCI   4
DICKINSON      CLOUDY    30  26  85 SW13      29.75F WCI  20
BEACH          MOCLDY    36  36 100 W21G29    29.81S WCI  24
CROSBY         CLOUDY    18  18 100 SW6       29.80S WCI   9
TIOGA          CLOUDY    16  16 100 S6        29.82S WCI   7
WATFORD CITY     N/A     18  18 100 CALM      29.77S
BISMARCK       LGT SNOW  18  12  77 SE13      29.91F WCI   5
GRAND FORKS    CLOUDY    13   1  59 SE20      30.14F WCI  -5
FARGO          CLOUDY    15   1  53 SE22G31   30.15F WCI  -3
BUFFALO SD       N/A     35  33  92 W15       29.76S WCI  25
RAPID CITY     LGT RAIN  37  34  89 NW30G39   29.86R WCI  24
$$

REGIONAL REPORTS...WYOMING/IDAHO/WASHINGTON

CITY           SKY/WX    TMP DP  RH WIND       PRES   REMARKS
GILLETTE       FLURRIES  34  30  85 W15G25    29.97R WCI  24
SHERIDAN       PTCLDY    39  21  48 W15       29.98R WCI  31
BUFFALO WY     CLEAR     38  17  42 NW13      30.00R WCI  30
CODY           CLEAR     41   9  26 W12G24    30.03R
YELLOWSTONE LA   N/A     22  14  71 VRB5      30.16R
IDAHO FALLS    CLOUDY    34  27  75 S12       30.23S WCI  25
SALMON         CLOUDY    36  25  64 CALM      30.17S
BOISE          CLOUDY    47  26  44 CALM      30.26R
SPOKANE        LGT RAIN  40  34  79 SW14      30.15F
$$

REGIONAL REPORTS...ALBERTA

CITY           SKY/WX    TMP DP  RH WIND       PRES   REMARKS
EDMONTON       PTCLDY    34  25  69 SW8       29.74S WCI  27
CALGARY        MOCLDY    41  16  36 W12G18    29.80S
LETHBRIDGE     MOCLDY    39  25  56 SW21G33   29.89S WCI  29
MEDICINE HAT   CLEAR     30  30 100 SW8       29.88F WCI  23
WATERTON GATE    N/A     34  25  69 SW9         N/A  WCI  26
CARDSTON         N/A     37  25  60 W10         N/A  WCI  30
MILK RIVER       N/A     37  25  60 W21         N/A  WCI  27
$$

REGIONAL REPORTS...SASKATCHEWAN

CITY           SKY/WX    TMP DP  RH WIND       PRES   REMARKS
SWIFT CURRENT  CLOUDY    28  28 100 W13       29.80S FOG     WCI  18
REGINA         CLOUDY    19  16  86 SE6       29.77R WCI  11
SASKATOON      CLOUDY    18  16  93 W7        29.81F WCI   8
CYPRESS HILLS    N/A     30  28  93 NW10G17     N/A  WCI  21
VAL MARIE        N/A     32  30  93 W9          N/A  WCI  24
ROCKGLEN         N/A     27  25  93 NW20G29     N/A  WCI  13
ASSINIBOIA       N/A     27  23  86 SW7         N/A  WCI  19
$$



USA.gov is the U.S. government's official web portal to all federal, state and local government web resources and services.